Location: Budapest
(47.4979°N, 19.0402°E)
Time: 12:07:42
(UTC+02:00)

Vanguard 1 - Visible Passes

Search period start: 22 October 2017 00:00
Search period end: 31 October 2017 23:00
Orbit: 650 x 3834 km, 34.3° (Epoch: 21 October)

Date Brightness Start Highest point End Pass type
(mag) Time Alt. Az. Time Alt. Az. Time Alt. Az.
22 Oct 13.1 01:31:54 38° ESE 01:31:54 38° ESE 01:45:31 10° E visible
22 Oct 12.6 03:44:37 48° SW 03:49:10 54° S 04:11:27 10° ESE visible
22 Oct 13.3 05:57:20 15° W 06:13:38 41° SSW 06:33:33 10° SSE visible
22 Oct 13.9 23:39:03 10° E 23:39:03 10° E 23:39:10 10° E visible
23 Oct 12.9 01:51:46 43° SE 01:51:46 43° SE 02:06:58 10° E visible
23 Oct 12.6 04:04:29 43° SW 04:10:19 52° S 04:32:21 10° SE visible
23 Oct 13.4 06:17:12 11° W 06:34:28 35° SW 06:53:19 10° SSE visible
23 Oct 13.8 23:58:57 14° E 23:58:57 14° E 00:01:02 10° E visible
24 Oct 12.8 02:11:40 47° SE 02:11:40 47° SE 02:28:20 10° ESE visible
24 Oct 12.7 04:24:23 38° WSW 04:31:25 48° SSW 04:53:03 10° SE visible
24 Oct 13.5 06:38:42 10° W 06:55:10 29° SW 07:12:37 10° S visible
25 Oct 13.7 00:18:53 17° E 00:18:53 17° E 00:22:43 10° E visible
25 Oct 12.7 02:31:36 49° SSE 02:31:36 49° SSE 02:49:35 10° ESE visible
25 Oct 12.8 04:44:20 33° WSW 04:52:28 44° SSW 05:13:30 10° SE visible
26 Oct 13.6 00:38:51 20° ESE 00:38:51 20° ESE 00:44:16 10° E visible
26 Oct 12.7 02:51:35 50° SSE 02:51:35 50° SSE 03:10:42 10° ESE visible
26 Oct 13.0 05:04:19 27° WSW 05:13:27 39° SSW 05:33:37 10° SSE visible
27 Oct 13.5 00:58:52 24° ESE 00:58:52 24° ESE 01:05:44 10° E visible
27 Oct 12.6 03:11:37 49° S 03:11:37 49° S 03:31:39 10° SE visible
27 Oct 13.1 05:24:20 22° WSW 05:34:22 33° SSW 05:53:20 10° SSE visible
28 Oct 13.4 01:18:56 27° ESE 01:18:56 27° ESE 01:27:07 10° ESE visible
28 Oct 12.7 03:31:40 46° SSW 03:31:40 46° SSW 03:52:22 10° SE visible
28 Oct 13.3 05:44:24 17° WSW 05:55:12 28° SW 06:12:32 10° SSE visible
29 Oct 13.3 01:39:01 29° SE 01:39:01 29° SE 01:48:23 10° ESE visible
29 Oct 12.7 02:51:45 41° SSW 02:52:43 41° SSW 03:12:48 10° SE visible
29 Oct 13.4 05:04:30 13° WSW 05:15:57 22° SW 05:30:57 10° S visible
30 Oct 13.2 00:59:09 31° SE 00:59:09 31° SE 01:09:30 10° ESE visible
30 Oct 12.9 03:11:53 35° SW 03:13:45 36° SSW 03:32:53 10° SSE visible
30 Oct 13.6 05:26:19 10° WSW 05:36:38 16° SW 05:48:06 10° SSW visible
31 Oct 13.1 01:19:18 33° SE 01:19:18 33° SE 01:30:26 10° SE visible
31 Oct 13.0 03:32:02 30° SW 03:34:43 31° SSW 03:52:31 10° SSE visible
31 Oct 13.7 05:53:20 10° WSW 05:57:16 11° SW 06:01:22 10° SW visible
